Platinum, AK

6:32 PM AKST on November 13, 2019 (GMT -0900)
Platinum

Weather History for PAPM - October, 2019

Change the Weather History Date:

Tuesday, October 22, 2019

  Actual Average (WUND) Record (WUND)
Temperature  
Mean Temperature 40 °F -  
Max Temperature 43 °F - - (-1)
Min Temperature 36 °F - - (-1)
Degree Days  
Heating Degree Days 26    
Moisture  
Dew Point 35 °F    
Average Humidity 85    
Maximum Humidity 93    
Minimum Humidity 68    
Precipitation  
Precipitation 0.05 in - - ()
Sea Level Pressure  
Sea Level Pressure 29.50 in    
Wind  
Wind Speed 11 mph (ENE)    
Max Wind Speed 23 mph    
Max Gust Speed 28 mph    
Visibility 10 miles    
Events Rain    
Averages and records for this station are not official NWS values.
T = Trace of Precipitation, MM = Missing Value Source: NWS Daily Summary

Daily Weather History Graph

Daily Weather History Graph

Search for Another Location

Airport or City:

Astronomy

Oct. 22, 2019 Rise Set
Actual Time 9:41 AM AKDT 7:21 PM AKDT
Civil Twilight 8:59 AM AKDT 8:02 PM AKDT
Nautical Twilight 8:12 AM AKDT 8:49 PM AKDT
Astronomical Twilight 7:25 AM AKDT 9:36 PM AKDT
Moon 1:06 AM AKDT (10/22) 6:24 PM AKDT (10/22)
Length of Visible Light 11h 03m
Length of Day
9h 39m
Waning Crescent, 35% of the Moon is Illuminated
Oct 22
Waning Crescent
Oct 27
New
Nov 4
First Quarter
Nov 12
Full
Nov 19
Last Quarter

Hourly Weather History & Observations

Time (AKDT) Temp. Windchill Dew Point Humidity Pressure Visibility Wind Dir Wind Speed Gust Speed Precip Events Conditions
12:56 AM 39.9 °F 34.5 °F 35.1 °F 83% 29.62 in 10.0 mi SSE 8.1 mph - 0.00 in   Clear
1:56 AM 39.0 °F 33.4 °F 35.1 °F 86% 29.63 in 10.0 mi SSE 8.1 mph - N/A   Clear
2:56 AM 36.0 °F 32.1 °F 32.0 °F 86% 29.64 in 10.0 mi SE 4.6 mph - N/A   Clear
3:56 AM 36.0 °F 31.1 °F 32.0 °F 86% 29.65 in 10.0 mi ESE 5.8 mph - N/A   Partly Cloudy
4:56 AM 37.0 °F 31.6 °F 34.0 °F 89% 29.66 in 10.0 mi SE 6.9 mph - N/A   Scattered Clouds
5:56 AM 37.9 °F 32.7 °F 34.0 °F 86% 29.67 in 10.0 mi ESE 6.9 mph - 0.00 in   Overcast
6:56 AM 37.9 °F 32.1 °F 35.1 °F 89% 29.67 in 10.0 mi East 8.1 mph - N/A   Scattered Clouds
7:56 AM 37.9 °F 32.7 °F 36.0 °F 93% 29.67 in 10.0 mi ESE 6.9 mph - N/A   Overcast
8:26 AM 39.2 °F 34.2 °F 35.6 °F 87% 29.66 in 10.0 mi East 6.9 mph - N/A   Mostly Cloudy
8:53 AM 37.4 °F 32.1 °F 35.6 °F 93% 29.66 in 10.0 mi East 6.9 mph - N/A   Scattered Clouds
8:56 AM 37.9 °F 33.5 °F 35.1 °F 89% 29.67 in 10.0 mi East 5.8 mph - N/A   Scattered Clouds
9:56 AM 37.0 °F 29.3 °F 35.1 °F 93% 29.67 in 10.0 mi East 11.5 mph - N/A   Partly Cloudy
10:56 AM 36.0 °F 26.3 °F 34.0 °F 93% 29.66 in 10.0 mi ENE 16.1 mph - N/A   Clear
11:56 AM 37.9 °F 28.9 °F 35.1 °F 89% 29.65 in 10.0 mi NE 16.1 mph - N/A   Clear
12:38 PM 39.2 °F 30.5 °F 35.6 °F 87% 29.61 in - East 16.1 mph - N/A   Unknown
12:56 PM 39.9 °F 30.0 °F 36.0 °F 86% 29.60 in 10.0 mi ENE 21.9 mph - N/A   Unknown
1:56 PM 41.0 °F 32.8 °F 37.0 °F 86% 29.58 in 10.0 mi ENE 16.1 mph - N/A   Scattered Clouds
2:56 PM 42.1 °F 33.1 °F 37.9 °F 85% 29.53 in 10.0 mi NE 20.7 mph - N/A   Clear
3:56 PM 43.0 °F 34.2 °F 37.0 °F 80% 29.49 in 10.0 mi ENE 20.7 mph - N/A   Overcast
4:56 PM 42.1 °F 32.8 °F 36.0 °F 79% 29.44 in 10.0 mi NE 21.9 mph - N/A   Overcast
5:56 PM 42.1 °F 33.9 °F 36.0 °F 79% 29.40 in 10.0 mi NE 17.3 mph - N/A   Overcast
7:56 PM 43.0 °F 34.8 °F 33.1 °F 68% 29.26 in 10.0 mi NNE 18.4 mph 27.6 mph 0.00 in Rain Light Rain
8:56 PM 41.0 °F 31.1 °F 34.0 °F 76% 29.19 in 10.0 mi North 23.0 mph - 0.00 in Rain Light Rain
9:56 PM 41.0 °F 31.4 °F 35.1 °F 79% 29.12 in 10.0 mi North 21.9 mph - 0.02 in Rain Light Rain
10:56 PM 41.0 °F 31.4 °F 36.0 °F 82% 29.05 in 10.0 mi North 21.9 mph - 0.01 in Rain Light Rain
11:03 PM 41.0 °F 31.6 °F 35.6 °F 81% 29.04 in 10.0 mi North 20.7 mph - 0.00 in Rain Light Rain
11:56 PM 41.0 °F 31.9 °F 37.0 °F 86% 28.99 in 10.0 mi North 19.6 mph - 0.02 in Rain Light Rain